Preview of NWS' New Version of Forecast
This preview is not operational and should not be used for support decisions.

Regional Weather Roundup (RWR)

Issued by National Weather Service (NWS)

                            
000
ASUS43 KDMX 160806
RWRIA 

WEATHER ROUNDUP FOR IOWA
NATIONAL WEATHER SERVICE DES MOINES IA
300 AM CDT MON SEP 16 2019

NOTE: "FAIR" INDICATES FEW OR NO CLOUDS BELOW 12,000 FEET WITH NO
SIGNIFICANT WEATHER AND/OR OBSTRUCTIONS TO VISIBILITY.

* - THESE STATIONS ARE NOT NWS STATIONS...THUS NOT UNDER NWS
QUALITY CONTROL.  THEY ALSO DO NOT REPORT WEATHER SUCH 
AS PRECIPITATION OR FOG.  

IAZ001>003-012>014-020>022-031>034-043>046-160900-
   NORTHWEST IOWA
  
CITY           SKY/WX    TMP DP  RH WIND       PRES   REMARKS
CARROLL *      CLEAR     66  66 100 SE5       30.03S FOG              
CHEROKEE *     CLEAR     66  66 100 CALM      30.02S                  
DENISON *      CLEAR     70  70 100 E5        30.04S                  
LE MARS *      CLEAR     68  68 100 S5        29.99S                  
SHELDON *        N/A     68  66  94 SE7G13    30.00S                  
SIOUX CITY     CLEAR     65  64  97 SE7       29.99S                  
SPENCER        CLEAR     64  61  90 S6        30.04R                  
STORM LAKE *   CLEAR     68  68 100 SE9G15    30.01S                  
$$
 
IAZ055>058-069>071-079>083-090>094-160900-
   SOUTHWEST IOWA
  
CITY           SKY/WX    TMP DP  RH WIND       PRES   REMARKS
ATLANTIC *     CLEAR     68  68 100 MISG      30.02S                  
AUDUBON *        N/A     63  61  94 CALM      30.05S                  
CLARINDA *     FOG       66  66 100 CALM      30.04S VSB 1/4          
COUNCIL BLFS * CLEAR     70  70 100 SE8       29.99S                  
CRESTON *      CLEAR     68  68 100 SE5       30.05S                  
LAMONI         CLEAR     74  70  87 SE5       30.05S                  
RED OAK *      CLEAR     70  70 100 CALM      30.02S                  
SHENANDOAH *   CLEAR     72  70  94 SE7       30.01S                  
$$
 
IAZ047>049-059>061-072>074-084-160900-
   CENTRAL IOWA
  
CITY           SKY/WX    TMP DP  RH WIND       PRES   REMARKS
AMES           FOG       65  65 100 CALM      30.05S VSB 1/4          
ANKENY *       FOG       64  64 100 CALM      30.05S VSB<1/4          
BOONE *        PTCLDY    68  68 100 SE5       30.05S FOG              
CHARITON *     CLEAR     70  68  94 E3        30.04S FOG              
DES MOINES     CLEAR     72  69  90 SE5       30.03S                  
GRINNELL*      FOG       67  66  97 E6        30.07S VSB 1/4          
KNOXVILLE *    CLEAR     70  70 100 CALM      30.04S                  
MARSHALLTOWN   FOG       63  63 100 E6        30.05S VSB 1/4          
NEWTON *       FOG       68  68 100 E6        30.05R VSB 1            
PELLA *        CLEAR     67  65  93 CALM      30.06S FOG              
PERRY *        FOG       65  65  99 E3        30.04F VSB 1/4          
$$
 
IAZ004>006-015-016-023>025-035-036-160900-
   NORTH CENTRAL IOWA
  
CITY           SKY/WX    TMP DP  RH WIND       PRES   REMARKS
ALGONA *       CLEAR     66  64  94 SE10      30.03F                  
CLARION *      CLEAR     66  66 100 SE9       30.05S                  
ESTHERVILLE    CLEAR     63  62  97 S7        30.03R                  
FORT DODGE *   CLEAR     68  66  93 SE6       30.05S                  
MASON CITY     PTCLDY    58  56  93 S5        30.08R                  
FOREST CITY *  FAIR      55  55 100 CALM      30.06S                  
IOWA FALLS *   DRZL/FOG  63  59  87 E3        30.07S VSB 1/4          
$$

IAZ007>011-017>019-026>030-037>042-050>054-066-160900-
   NORTHEAST IOWA
  
CITY           SKY/WX    TMP DP  RH WIND       PRES   REMARKS
CEDAR RAPIDS   FOG       66  66 100 E5        30.05S VSB 1/4          
CHARLES CITY * FOG       64  64 100 SE3       30.07S VSB<1/4          
CLINTON *      FOG       64  64 100 N5        30.07S VSB 1/4          
DECORAH *      FOG       64  64 100 CALM      30.07S VSB<1/4          
DUBUQUE        FOG       63  63 100 NE7       30.08S VSB 1/4          
MONTICELLO *   FOG       64  64 100 CALM      30.07S VSB<1/4          
OELWEIN *      FOG       61  61 100 E6        30.08S VSB 0            
WATERLOO       FOG       65  63  93 E5        30.05S VSB 1/4          
$$
 
IAZ064-065-067-068-078-160900-
   EAST CENTRAL IOWA
  
CITY           SKY/WX    TMP DP  RH WIND       PRES   REMARKS
DAVENPORT      FAIR      70  68  93 NE6       30.07S FOG              
IOWA CITY      FAIR      72  69  90 CALM      30.06S                  
MUSCATINE *    FAIR      70  68  94 CALM      30.05S FOG              
QUAD CITIES    FOG       68  66  93 CALM      30.05S VSB 1            
$$
 
IAZ062-063-075>077-085>089-095>099-160900-
   SOUTHEAST IOWA
  
CITY           SKY/WX    TMP DP  RH WIND       PRES   REMARKS
BURLINGTON     FOG       69  68  96 CALM      30.04R VSB 3/4          
FAIRFIELD *    CLEAR     70  70 100 NE3       30.05R FOG              
FORT MADISON * CLEAR     72  72 100 S3        30.05S FOG              
KEOKUK *       CLEAR     68  68 100 CALM      30.04S FOG              
OSKALOOSA *    FAIR      68  66  94 NE3       30.05S FOG              
CENTERVILLE *  FAIR      66  66 100 CALM      30.07R                  
OTTUMWA        CLEAR     72  70  93 E3        30.04S                  
WASHINGTON *     N/A    N/A N/A N/A MISG        N/A                   
$$

ABBREVIATIONS USED IN REMARKS
   TC - TEMPERATURES IN CELSIUS
  WCI - WIND CHILL INDEX
   HX - HEAT INDEX
  VSB - VISIBILITY  
$$